Location: Be?i?
(36.9044°N, 30.1006°E)
Time: 09:42:13
(UTC+00:00)

Cosmos 2344 - Pass Details

Date: 05 August 2024
Orbit: 1207 x 3035 km, 63.3° (Epoch: 12 September)

Event Time Altitude Azimuth Distance (km) Brightness Sun altitude
Exits shadow 21:05:57 26° 251° (WSW) 2,307 4.8 -34.6°
Maximum altitude 21:09:58 46° 309° (NW) 1,604 4.3 -34.9°
Drops below altitude 10° 21:16:55 10° 22° (NNE) 3,182 6.2 -35.2°
Sets 21:19:51 0° 29° (NNE) 4,218 6.9 -35.4°
